Preview of NWS' New Version of Forecast
This preview is not operational and should not be used for support decisions.

Regional Weather Roundup (RWR)

Issued by National Weather Service (NWS)

                            
000
ASUS44 KMEG 210600
RWRTN 
TENNESSEE HOURLY STATE WEATHER ROUNDUP
NATIONAL WEATHER SERVICE MEMPHIS TN
1200 AM CST THU FEB 21 2019

TNZ002-004-019-021-049-052-054-088>092-210700-
WEST TENNESSEE
  
CITY           SKY/WX    TMP DP  RH WIND       PRES   REMARKS
MEMPHIS INTL   FAIR      39  37  92 CALM      30.07R                  
NWS MEMPHIS      N/A     36 N/A N/A MISG        N/A                   
JACKSON        FAIR      34  33  96 CALM      30.09R                  
DYERSBURG      FOG       36  36 100 CALM      30.09R VSB 3/4          
$$

TNZ008-025-027-028-033-062-065-066-210700-
NORTH MIDDLE TENNESSEE
  
CITY           SKY/WX    TMP DP  RH WIND       PRES   REMARKS
NASHVILLE      CLOUDY    47  42  83 NW7       30.07R                  
CLARKSVILLE    CLOUDY    42  39  89 S3        30.08R                  
SMYRNA         CLOUDY    47  45  93 NW10      30.06R                  
CROSSVILLE     CLOUDY    50  49  96 SW5       30.02S FOG              
$$

TNZ061-075-076-078-094-096-097-210700-
SOUTH MIDDLE TENNESSEE
  
CITY           SKY/WX    TMP DP  RH WIND       PRES   REMARKS
$$

TNZ017-018-042-046-047-210700-
NORTHEAST TENNESSEE
  
CITY           SKY/WX    TMP DP  RH WIND       PRES   REMARKS
TRI CITIES     CLOUDY    46  46 100 CALM      30.02R                  
$$

TNZ012-013-036-069-073-074-210700-
CENTRAL EAST TENNESSEE
  
CITY           SKY/WX    TMP DP  RH WIND       PRES   REMARKS
KNOXVILLE      LGT RAIN  48  47  96 CALM      30.01S FOG              
OAK RIDGE      LGT RAIN  51  51 100 CALM      30.03S FOG              
$$

TNZ083-085-099-210700-
SOUTHEAST TENNESSEE
  
CITY           SKY/WX    TMP DP  RH WIND       PRES   REMARKS
CHATTANOOGA    CLOUDY    48  45  89 S7        30.05S                  
$$

SKY/WX REPORTED AS FAIR MEANS FEW OR NO CLOUDS BELOW
12 THOUSAND FEET.